Location: Unspecified
(49.9820°N, 20.4363°E)
Time: 09:34:50
(UTC+02:00)

ISS - Pass Details

Date: 18 July 2018
Orbit: 402 x 408 km, 51.6° (Epoch: 23 July)

Event Time Altitude Azimuth Distance (km) Brightness Sun altitude
Exits shadow 22:25:38 11° 94° (E) 1,421 -1.4 -12.7°
Drops below altitude 10° 22:25:48 10° 92° (E) 1,477 -1.3 -12.7°
Sets 22:28:11 0° 75° (ENE) 2,332 -0.2 -12.9°
